STARLINK-36383

Last updated on Wed Mar 25 2026 00:02:05 GMT+0000 (Coordinated Universal Time)

1 67922U 26036U 26082.58767343 .00158332 00000+0 74184-3 0 9992 2 67922 42.9998 164.4440 0002827 281.9711 78.0844 15.81982911 5876
UTC large
Height (km)
Speed (km/s)
/
Latitude / Longitude
Inclination (degrees)
Orbital Period (minutes)
Azimuth
Elevation
Range (km)
Doppler Factor

Next 0 passes for location: London (51.5072 / 0.1276)

Sorry there are no passes over London.